Regional Weather Roundup
Issued by NWS

Home | Current Version | Previous Version | Text Only | Print | Product List | Glossary On
Versions: 1 2 3 4 5 6 7 8 9 10 11 12 13 14 15 16 17 18 19 20 21 22 23 24 25 26 27 28 29 30 31 32 33 34 35 36 37 38 39 40 41 42 43 44 45 46 47 48 49 50
000
ASUS44 KLIX 182205
RWRLA
LOUISIANA WEATHER ROUNDUP
NATIONAL WEATHER SERVICE NEW ORLEANS LA
500 PM CDT FRI APR 18 2014

NOTE: "FAIR" INDICATES FEW OR NO CLOUDS BELOW 12,000 FEET WITH NO
      SIGNIFICANT WEATHER AND/OR OBSTRUCTIONS TO VISIBILITY.
      SKY/WX - SKY CONDITION AND SIGNIFICANT WEATHER.
      TMP - AIR TEMPERATURE.    DP   - DEWPOINT TEMPERATURE.
      RH  - RELATIVE HUMIDITY.  PRES - PRESSURE.
      HX  - HEAT INDEX.         WCI  - WIND CHILL INDEX.

*  THESE STATIONS ARE NOT NWS OR FAA STATIONS AND ARE NOT UNDER
   NWS QUALITY CONTROL.

LAZ040-048-061>063-065-066-069-182300-
SOUTHEAST LOUISIANA

CITY           SKY/WX    TMP DP  RH WIND       PRES   REMARKS
N.O. AUDUBON     N/A     73  57  56 MISG        N/A
N.O. INTL ARPT MOSUNNY   73  58  59 NE14      30.06S
N.O. LAKEFRONT PTSUNNY   70  60  70 NE8       30.07R
N.O. DOWNTOWN* FAIR      72  54  53 N12G17    30.07R
SLIDELL        CLOUDY    68  56  65 NE13      30.06R
BATON ROUGE    TSTM      72  60  66 NW5       30.06S
BOOTHVILLE     CLOUDY    67  60  78 N9        30.04S
BELLE CHASSE   PTSUNNY   71  56  58 NE10G16   30.05R
BOGALUSA*        N/A     71  55  57 NE12G17   30.09S
GALLIANO*      PTCLDY    74  58  58 N13       30.05R
NEW ROADS*     FAIR      74  59  59 N9        30.07S
GONZALES*      FAIR      75  57  53 N7        30.05R
HAMMOND*       CLOUDY    73  54  49 NE7       30.09R
HOUMA*         MOSUNNY   75  55  50 NE12      30.04S
PORT FOURCHON* CLEAR     72  59  64 NE15      30.06S

$$

LAZ041-044-053-054-182300-
SOUTHWEST LOUISIANA

CITY           SKY/WX    TMP DP  RH WIND       PRES   REMARKS
LAKE CHARLES   CLOUDY    76  55  48 N9        30.08S
LAFAYETTE      SUNNY     73  60  63 N13       30.07F
PATTERSON      PTSUNNY   77  57  50 N9        30.07S
SALT POINT       N/A     80  57  45 N5        30.03S
NEW IBERIA     MOSUNNY   72  60  66 N13       30.07R
CHENAULT AIRPK NOT AVBL

$$

LAZ027-028-182300-
CENTRAL LOUISIANA

CITY           SKY/WX    TMP DP  RH WIND       PRES   REMARKS
FORT POLK      CLOUDY    72  56  57 N12       30.10S
ALEXANDRIA INT MOSUNNY   76  57  51 N9        30.08F
ALEXANDRIA     MOSUNNY   77  56  48 N8        30.09F

$$

LAZ001-002-182300-
NORTHWEST LOUISIANA

CITY           SKY/WX    TMP DP  RH WIND       PRES   REMARKS
SHREVEPORT     PTSUNNY   75  52  44 E10       30.11F
BARKSDALE AFB  PTSUNNY   73  52  48 E10       30.12F
DTN SHREVEPORT PTSUNNY   72  53  51 NE7       30.12F

$$

LAZ014-016-182300-
NORTHEAST LOUISIANA

CITY           SKY/WX    TMP DP  RH WIND       PRES   REMARKS
MONROE         SUNNY     74  54  49 N9        30.12F
TALLULAH       CLOUDY    71  58  63 E7        30.11S

$$




USA.gov is the U.S. government's official web portal to all federal, state and local government web resources and services.